Indianapolis Mount Comfort, IN

8:38 PM EST on December 13, 2019 (GMT -0500)
Mount Comfort

Weather History for KMQJ - June, 2019

Change the Weather History Date:

Friday, June 14, 2019

  Actual Average (KEYE) Record (KEYE)
Temperature  
Mean Temperature 62 °F -  
Max Temperature 75 °F 76 °F 91 °F (2007)
Min Temperature 48 °F 60 °F 48 °F (2014)
Degree Days  
Heating Degree Days 4    
Growing Degree Days 12 (Base 50)    
Moisture  
Dew Point 51 °F    
Average Humidity 69    
Maximum Humidity 100    
Minimum Humidity 43    
Precipitation  
Precipitation 0.00 in - - ()
Sea Level Pressure  
Sea Level Pressure 30.09 in    
Wind  
Wind Speed 8 mph (SSW)    
Max Wind Speed 18 mph    
Max Gust Speed 23 mph    
Visibility 10 miles    
Events      
Averages and records for this station are not official NWS values.
T = Trace of Precipitation, MM = Missing Value Source: NWS Daily Summary

Daily Weather History Graph

Daily Weather History Graph

Search for Another Location

Airport or City:

Astronomy

Jun. 14, 2019 Rise Set
Actual Time 6:14 AM EDT 9:13 PM EDT
Civil Twilight 5:42 AM EDT 9:45 PM EDT
Nautical Twilight 5:00 AM EDT 10:27 PM EDT
Astronomical Twilight 4:12 AM EDT 11:15 PM EDT
Moon 6:34 PM EDT 4:31 AM EDT
Length of Visible Light 16h 03m
Length of Day
14h 58m
Waxing Gibbous, 92% of the Moon is Illuminated
Jun 14
Waxing Gibbous
Jun 17
Full
Jun 25
Last Quarter
Jul 2
New
Jul 9
First Quarter

Hourly Weather History & Observations

Time (EDT) Temp. Dew Point Humidity Pressure Visibility Wind Dir Wind Speed Gust Speed Precip Events Conditions
12:06 AM 50.0 °F 50.0 °F 100% 30.08 in 10.0 mi South 3.5 mph - N/A   Clear
12:24 AM 50.0 °F 50.0 °F 100% 30.08 in 10.0 mi South 3.5 mph - N/A   Clear
12:46 AM 50.0 °F 50.0 °F 100% 30.08 in 10.0 mi SSW 3.5 mph - N/A   Clear
1:04 AM 50.0 °F 50.0 °F 100% 30.08 in 10.0 mi SSW 5.8 mph - N/A   Clear
1:23 AM 51.8 °F 51.8 °F 100% 30.08 in 10.0 mi SSW 6.9 mph - N/A   Clear
1:48 AM 51.8 °F 51.8 °F 100% 30.08 in 10.0 mi SSW 5.8 mph - N/A   Clear
2:05 AM 51.8 °F 51.8 °F 100% 30.08 in 10.0 mi SSW 5.8 mph - N/A   Clear
2:23 AM 51.8 °F 51.8 °F 100% 30.08 in 10.0 mi SSW 5.8 mph - N/A   Clear
2:44 AM 51.8 °F 51.8 °F 100% 30.08 in 10.0 mi SSW 5.8 mph - N/A   Clear
3:04 AM 50.0 °F 50.0 °F 100% 30.09 in 10.0 mi SSW 5.8 mph - N/A   Clear
3:23 AM 50.0 °F 50.0 °F 100% 30.08 in 10.0 mi SW 4.6 mph - N/A   Clear
3:43 AM 50.0 °F 50.0 °F 100% 30.09 in 10.0 mi SW 6.9 mph - N/A   Clear
4:06 AM 50.0 °F 50.0 °F 100% 30.09 in 10.0 mi SW 5.8 mph - N/A   Clear
4:28 AM 48.2 °F 48.2 °F 100% 30.09 in 10.0 mi SW 5.8 mph - N/A   Clear
4:43 AM 48.2 °F 48.2 °F 100% 30.10 in 10.0 mi WSW 5.8 mph - N/A   Clear
5:04 AM 48.2 °F 48.2 °F 100% 30.10 in 10.0 mi WSW 4.6 mph - N/A   Clear
5:24 AM 48.2 °F 48.2 °F 100% 30.11 in 10.0 mi SW 5.8 mph - N/A   Clear
5:43 AM 48.2 °F 48.2 °F 100% 30.11 in 10.0 mi SW 4.6 mph - N/A   Clear
6:03 AM 48.2 °F 46.4 °F 93% 30.12 in 10.0 mi SW 4.6 mph - N/A   Clear
6:25 AM 48.2 °F 46.4 °F 93% 30.13 in 10.0 mi SW 4.6 mph - N/A   Clear
6:43 AM 48.2 °F 48.2 °F 100% 30.14 in 10.0 mi SSW 4.6 mph - N/A   Clear
7:04 AM 50.0 °F 48.2 °F 94% 30.14 in 10.0 mi SW 3.5 mph - N/A   Clear
7:27 AM 51.8 °F 48.2 °F 88% 30.14 in 10.0 mi SW 5.8 mph - N/A   Clear
7:43 AM 51.8 °F 50.0 °F 94% 30.14 in 10.0 mi SW 5.8 mph - N/A   Clear
8:03 AM 53.6 °F 50.0 °F 88% 30.15 in 10.0 mi SW 3.5 mph - N/A   Clear
8:27 AM 57.2 °F 50.0 °F 77% 30.15 in 10.0 mi SSW 5.8 mph - N/A   Clear
9:03 AM 60.8 °F 51.8 °F 72% 30.16 in 10.0 mi SW 10.4 mph - N/A   Clear
9:27 AM 62.6 °F 51.8 °F 68% 30.17 in 10.0 mi SW 9.2 mph - N/A   Clear
9:49 AM 64.4 °F 51.8 °F 64% 30.17 in 10.0 mi SW 6.9 mph - N/A   Clear
10:05 AM 64.4 °F 50.0 °F 59% 30.17 in 10.0 mi SW 9.2 mph - N/A   Clear
10:24 AM 66.2 °F 50.0 °F 56% 30.16 in 10.0 mi SW 8.1 mph - N/A   Clear
10:44 AM 68.0 °F 50.0 °F 52% 30.17 in 10.0 mi SW 9.2 mph - N/A   Clear
11:03 AM 68.0 °F 50.0 °F 52% 30.16 in 10.0 mi WSW 10.4 mph 16.1 mph N/A   Clear
11:23 AM 69.8 °F 50.0 °F 49% 30.14 in 10.0 mi SSW 11.5 mph 16.1 mph N/A   Clear
11:47 AM 69.8 °F 48.2 °F 46% 30.15 in 10.0 mi SSW 10.4 mph - N/A   Clear
12:04 PM 69.8 °F 48.2 °F 46% 30.14 in 10.0 mi SSW 13.8 mph 18.4 mph N/A   Clear
12:24 PM 69.8 °F 48.2 °F 46% 30.14 in 10.0 mi South 10.4 mph - N/A   Clear
12:43 PM 71.6 °F 50.0 °F 46% 30.13 in 10.0 mi South 11.5 mph 20.7 mph N/A   Clear
1:06 PM 71.6 °F 48.2 °F 43% 30.12 in 10.0 mi SSW 12.7 mph 18.4 mph N/A   Clear
1:24 PM 71.6 °F 50.0 °F 46% 30.12 in 10.0 mi SSW 13.8 mph 19.6 mph N/A   Clear
1:43 PM 71.6 °F 50.0 °F 46% 30.11 in 10.0 mi South 10.4 mph - N/A   Clear
2:04 PM 73.4 °F 50.0 °F 44% 30.11 in 10.0 mi SSW 15.0 mph 19.6 mph N/A   Clear
2:27 PM 73.4 °F 50.0 °F 44% 30.10 in 10.0 mi SSW 15.0 mph 20.7 mph N/A   Clear
2:43 PM 73.4 °F 51.8 °F 47% 30.09 in 10.0 mi SW 18.4 mph 23.0 mph N/A   Clear
3:05 PM 73.4 °F 51.8 °F 47% 30.08 in 10.0 mi SW 17.3 mph 21.9 mph N/A   Clear
3:23 PM 75.2 °F 51.8 °F 44% 30.07 in 10.0 mi SW 15.0 mph 23.0 mph N/A   Clear
3:43 PM 73.4 °F 51.8 °F 47% 30.07 in 10.0 mi SW 17.3 mph 23.0 mph N/A   Clear
4:03 PM 75.2 °F 51.8 °F 44% 30.05 in 10.0 mi SSW 12.7 mph 18.4 mph N/A   Clear
4:24 PM 75.2 °F 51.8 °F 44% 30.05 in 10.0 mi SW 12.7 mph 20.7 mph N/A   Clear
4:45 PM 75.2 °F 51.8 °F 44% 30.04 in 10.0 mi SW 15.0 mph 19.6 mph N/A   Clear
5:03 PM 75.2 °F 53.6 °F 47% 30.04 in 10.0 mi SSW 13.8 mph 18.4 mph N/A   Clear
5:28 PM 75.2 °F 53.6 °F 47% 30.03 in 10.0 mi SW 17.3 mph - N/A   Clear
5:45 PM 75.2 °F 53.6 °F 47% 30.02 in 10.0 mi South 13.8 mph 20.7 mph N/A   Clear
6:04 PM 73.4 °F 51.8 °F 47% 30.02 in 10.0 mi SSW 15.0 mph 21.9 mph N/A   Clear
6:27 PM 71.6 °F 51.8 °F 50% 30.02 in 10.0 mi SSW 12.7 mph 21.9 mph N/A   Clear
6:43 PM 71.6 °F 51.8 °F 50% 30.02 in 10.0 mi SSW 16.1 mph 20.7 mph N/A   Clear
7:04 PM 71.6 °F 53.6 °F 53% 30.01 in 10.0 mi SSW 13.8 mph - N/A   Clear
7:23 PM 71.6 °F 53.6 °F 53% 30.01 in 10.0 mi SSW 11.5 mph - N/A   Clear
7:46 PM 69.8 °F 53.6 °F 56% 30.01 in 10.0 mi SSW 11.5 mph - N/A   Clear
8:05 PM 69.8 °F 51.8 °F 53% 30.02 in 10.0 mi SSW 12.7 mph 19.6 mph N/A   Clear
8:23 PM 69.8 °F 51.8 °F 53% 30.02 in 10.0 mi SSW 12.7 mph - N/A   Clear
8:45 PM 68.0 °F 51.8 °F 56% 30.01 in 10.0 mi SSW 8.1 mph - N/A   Clear
9:04 PM 68.0 °F 51.8 °F 56% 30.01 in 10.0 mi SSW 6.9 mph - N/A   Clear
9:23 PM 68.0 °F 53.6 °F 60% 30.01 in 10.0 mi South 9.2 mph - N/A   Clear
9:47 PM 68.0 °F 53.6 °F 60% 30.01 in 10.0 mi South 9.2 mph - N/A   Clear
10:03 PM 68.0 °F 53.6 °F 60% 30.00 in 10.0 mi South 9.2 mph - N/A   Scattered Clouds
10:23 PM 66.2 °F 55.4 °F 68% 30.00 in 10.0 mi South 8.1 mph - N/A   Mostly Cloudy
10:43 PM 66.2 °F 55.4 °F 68% 29.99 in 10.0 mi South 10.4 mph - N/A   Overcast